Temperature
17 18 19 19 19 18 18 17 18 18 18 18 18 17 17 18 18 18 18 18 19 19 19 19 19 19 19 19 19 19 18 18 18 18 18 17 17 17 17 17 16 16 16 16
18 18 19 19 19 19 19 19 18 19 18 17 17 17 17 17 17 17 18 18 18 19 19 19 19 19 19 19 19 19 18 18 18 18 18 18 17 17 17 17 16 16 16 16
16 18 18 18 19 19 19 19 19 18 18 17 16 16 16 16 16 17 17 17 17 18 18 19 19 19 19 19 19 18 18 18 18 18 18 18 17 17 17 16 16 16 16 16
14 16 17 17 18 19 19 18 18 18 17 16 15 15 15 16 16 16 16 17 17 18 18 18 18 19 19 19 19 18 18 18 18 17 17 17 17 17 17 16 16 16 16 15
13 15 16 17 17 17 17 17 17 16 16 15 14 15 14 15 15 15 16 16 16 17 17 18 18 18 18 18 18 17 17 17 17 17 17 17 17 17 16 16 16 16 15 15
13 15 16 17 17 17 17 17 16 16 15 15 15 15 14 14 14 15 15 16 16 16 16 17 17 17 17 17 17 17 17 17 17 16 16 16 16 16 16 16 16 15 15 15
13 14 15 16 16 16 17 17 16 15 15 15 14 14 14 14 14 15 15 15 15 16 16 16 16 16 16 16 16 16 16 16 16 16 16 15 15 15 15 15 15 15 14 14
13 14 15 15 15 15 15 15 15 15 15 14 13 13 13 13 13 14 14 14 15 15 15 15 15 16 15 15 15 15 15 15 15 15 15 14 14 14 14 14 14 14 13 13
13 13 13 13 14 14 14 14 14 14 14 14 13 12 12 12 13 13 13 13 14 14 14 14 14 14 14 14 14 14 14 14 14 14 14 14 13 13 13 13 13 13 12 12
12 13 13 13 13 14 14 14 14 14 14 13 13 12 12 12 12 12 13 13 13 13 13 13 13 13 13 13 13 13 13 13 13 13 13 13 13 12 12 12 12 12 12 12
12 12 13 13 13 13 13 13 13 13 13 13 12 12 12 12 12 12 12 12 12 12 12 12 12 12 12 12 12 12 12 12 12 12 12 12 12 12 11 11 11 11 11 11
12 12 12 12 12 13 13 13 13 13 12 12 13 12 12 12 12 12 12 12 12 12 12 12 12 12 12 12 12 12 12 12 11 11 11 11 11 11 11 11 11 10 10 10
12 12 12 12 12 12 12 12 12 12 12 12 12 12 12 11 11 11 11 11 11 11 11 11 11 11 11 11 11 11 11 11 11 11 11 11 10 10 10 10 10 10 10 9
12 12 12 12 11 12 12 12 12 12 12 12 12 12 11 11 11 11 11 11 11 11 11 11 11 11 10 11 11 11 10 10 10 10 10 10 10 10 9 9 9 9 9 9
12 12 12 11 12 12 12 12 12 11 11 11 11 11 11 11 11 11 11 11 10 10 10 10 10 10 10 10 10 10 10 10 9 9 9 9 9 9 9 9 9 8 8 8
12 12 12 12 11 11 11 12 11 11 11 11 11 11 11 11 11 10 10 10 10 10 10 10 10 10 9 9 9 9 9 9 9 9 9 8 8 8 8 8 8 8 8 7
11 11 11 11 11 11 11 12 12 11 11 11 11 11 11 11 10 10 10 10 10 10 10 10 9 9 9 9 9 9 9 8 8 8 8 8 7 7 7 7 7 7 6 6
12 12 12 12 12 12 12 12 12 11 11 11 11 11 11 10 10 10 10 10 10 9 9 9 9 9 9 9 8 8 8 8 8 7 7 7 7 6 6 6 6 6 5 5
12 12 12 12 12 12 12 12 11 11 11 11 11 10 10 10 10 10 10 9 9 9 9 9 8 8 8 8 8 8 7 7 7 7 6 6 6 6 5 5 5 5 5 5
12 12 12 12 12 12 11 11 11 11 11 11 10 10 10 10 10 10 9 9 9 9 8 8 8 8 8 7 7 7 7 6 6 6 6 5 5 5 5 4 4 4 4 4
11 11 11 11 11 11 11 11 11 11 10 10 10 10 10 10 9 9 9 9 8 8 8 8 8 7 7 7 7 6 6 6 5 5 5 5 4 4 4 4 3 3 3 3
11 11 11 11 11 11 11 11 10 10 10 10 10 10 9 9 9 9 9 8 8 8 8 7 7 7 6 6 6 5 5 5 5 4 4 4 3 3 3 3 3 2 2 2
10 10 10 10 10 10 10 10 10 10 10 10 9 9 9 9 9 8 8 8 7 7 7 7 6 6 6 5 5 5 4 4 4 3 3 3 3 2 2 2 2 2 1 1
10 10 10 10 10 10 10 10 9 9 9 9 9 9 8 8 8 8 7 7 7 7 6 6 6 5 5 5 4 4 4 3 3 3 2 2 2 2 1 1 1 1 1 0
10 10 10 9 9 9 9 9 9 9 9 8 8 8 8 8 7 7 7 7 6 6 6 5 5 4 4 4 3 3 3 2 2 2 2 1 1 1 1 1 0 0 0 -0
9 9 9 9 9 9 9 9 8 8 8 8 8 7 7 7 7 6 6 6 6 5 5 5 4 4 3 3 3 2 2 2 2 1 1 1 1 0 0 0 -0 -0 -0 -1
9 9 9 9 8 8 8 8 8 8 8 7 7 7 7 6 6 6 5 5 5 5 4 4 3 3 3 2 2 2 2 1 1 1 1 0 0 0 -0 -0 -0 -1 -1 -1
Wind_Speed
7 7 5 6 7 7 7 8 9 9 8 8 6 5 3 3 4 5 5 5 5 6 6 6 6 6 8 8 8 9 9 10 10 9 8 8 8 8 8 8 9 9 9 9
4 6 6 8 9 9 8 6 7 5 7 5 2 3 4 4 6 6 5 5 4 5 5 5 5 6 6 7 8 9 10 10 9 8 8 8 8 8 7 8 8 7 8 8
5 5 3 8 9 10 7 7 9 10 8 4 4 4 4 4 5 5 5 5 5 5 4 4 4 5 6 6 7 8 9 8 8 8 8 8 8 8 8 8 7 8 8 9
3 1 7 9 4 6 8 6 7 5 4 6 7 6 6 5 6 6 6 5 4 4 3 3 2 3 3 5 6 7 7 7 7 8 8 7 7 7 7 6 7 7 8 8
4 5 7 6 3 3 4 5 5 7 8 10 11 8 6 6 6 7 7 6 4 4 4 4 4 4 5 5 5 4 4 4 5 6 6 6 6 6 5 5 6 6 5 7
3 5 7 7 2 1 2 4 4 7 12 13 8 5 4 5 7 9 9 8 7 7 8 8 6 6 8 7 7 5 3 2 3 4 4 4 4 3 3 3 4 4 3 4
5 6 7 4 2 1 5 7 3 7 10 8 4 6 9 9 9 9 10 9 8 9 9 8 7 9 10 9 7 5 5 6 5 4 3 3 3 2 2 2 2 2 2 1
3 4 6 4 2 3 4 1 3 6 8 9 12 14 13 11 10 10 10 10 9 10 10 9 8 10 11 9 6 7 8 8 7 6 5 4 4 3 3 3 3 2 2 2
4 5 4 4 4 4 1 2 4 7 11 14 15 15 13 11 11 10 10 10 9 11 11 10 10 10 11 7 6 8 9 8 7 7 6 6 5 4 3 3 3 2 2 1
3 4 3 4 3 3 2 4 7 10 13 14 16 16 15 12 10 9 10 9 9 11 12 10 10 10 8 7 8 10 10 9 8 7 7 7 6 4 4 3 2 2 1 1
3 3 2 4 4 4 7 10 12 13 13 14 17 16 14 12 10 9 9 8 9 10 10 9 9 10 9 7 8 10 9 8 8 7 7 7 7 6 6 5 3 3 2 2
4 3 2 0 2 6 11 11 12 15 15 13 14 15 14 12 9 10 10 9 10 10 10 8 9 9 8 8 8 9 8 7 6 6 5 5 6 7 10 9 10 10 7 5
2 2 4 5 6 8 12 13 13 15 16 14 12 13 13 11 9 10 9 9 9 8 8 8 9 9 8 7 8 9 8 6 5 5 5 5 5 5 5 7 10 11 9 7
4 6 7 6 7 9 13 15 15 15 14 13 12 12 12 11 10 10 9 7 7 8 8 8 9 8 6 6 8 8 7 7 6 5 4 4 4 4 3 3 4 4 6 7
7 7 7 9 11 12 13 15 16 14 13 12 11 11 11 11 10 8 7 7 8 9 8 8 8 7 6 6 8 7 6 5 5 4 4 4 4 4 3 4 3 3 3 4
8 10 11 13 13 13 13 14 14 12 11 11 11 10 10 10 9 8 6 6 7 7 5 6 6 4 4 6 7 6 5 7 5 4 4 4 3 3 3 3 3 3 3 3
9 8 10 12 12 11 11 11 11 11 11 11 10 10 10 10 9 7 6 6 6 5 4 4 3 3 4 5 5 4 4 4 6 4 4 3 3 3 3 2 2 2 3 4
8 8 9 11 11 12 10 10 10 10 9 9 9 10 9 8 7 6 5 5 6 6 5 4 3 4 4 4 4 3 3 3 3 3 3 3 3 2 3 3 3 3 4 4
11 11 11 11 10 11 10 10 9 8 8 9 9 8 7 6 6 5 5 6 6 4 3 4 5 5 4 4 4 3 3 3 3 3 3 3 4 3 3 3 3 4 4 4
12 12 12 11 10 10 10 9 9 8 7 8 9 8 7 6 5 5 6 5 2 0 0 2 4 4 4 4 5 3 3 4 4 3 3 3 4 4 4 4 4 4 4 4
12 12 12 11 10 9 9 8 9 8 7 7 8 7 6 5 5 5 5 4 2 2 2 4 4 3 3 4 5 4 4 4 4 3 3 3 3 4 4 4 4 4 4 4
10 11 11 10 11 9 7 7 7 8 7 7 7 7 7 5 5 4 4 2 1 3 3 3 3 4 5 5 4 4 4 4 4 3 3 3 3 3 3 3 3 4 4 4
9 9 9 9 9 8 8 7 7 7 7 6 6 5 5 4 3 3 2 1 1 4 4 3 5 7 8 5 4 4 4 4 4 3 3 3 3 3 3 4 4 4 4 4
8 8 8 7 8 9 8 6 6 6 6 5 5 4 4 4 3 2 2 3 4 6 4 5 7 8 7 5 4 5 5 4 4 4 4 3 3 3 3 4 4 4 4 5
8 7 7 8 8 6 5 5 6 6 6 5 5 5 3 3 2 2 3 4 5 6 4 5 8 8 6 5 5 5 4 4 4 4 4 4 4 4 4 4 4 4 4 4
6 5 5 5 4 3 3 4 4 3 4 4 3 3 3 3 4 4 4 4 6 6 5 4 4 5 5 5 5 5 4 4 4 4 4 4 4 4 4 4 5 4 4 4
6 5 4 4 4 3 3 3 3 2 2 3 2 2 3 3 4 4 4 4 4 4 4 4 4 4 5 5 5 4 4 4 4 4 3 3 3 3 3 4 4 4 4 5
Wind_Direction
232 245 243 242 235 201 194 194 193 222 225 245 229 203 186 159 139 122 113 129 152 160 165 166 171 180 184 186 182 181 182 190 198 196 191 191 192 194 193 194 200 200 201 205
261 252 246 250 245 224 217 208 214 225 246 236 180 129 124 129 130 127 127 130 126 130 144 158 170 178 184 189 186 179 186 196 196 190 188 192 196 194 192 197 200 196 203 207
252 266 276 247 227 213 208 204 187 209 221 158 141 131 132 124 121 127 121 116 117 120 131 151 171 179 186 189 177 178 188 193 193 190 193 199 200 195 200 203 201 202 207 209
225 192 228 244 246 211 202 214 203 197 167 155 141 114 86 87 107 109 107 104 102 104 106 109 121 146 161 158 164 176 187 192 194 193 198 195 189 197 202 197 202 208 211 211
178 217 262 278 248 194 190 230 205 175 147 134 127 102 74 68 86 97 92 88 84 83 84 79 78 91 104 108 121 138 164 180 182 183 188 184 190 199 198 195 202 208 209 211
186 204 232 245 251 236 130 254 213 168 158 155 144 134 133 96 87 86 80 77 75 76 75 70 61 81 94 91 92 92 95 107 127 145 159 172 184 189 182 188 206 204 211 212
214 230 256 276 307 103 187 236 189 168 163 157 144 132 124 108 91 84 81 76 75 75 70 61 63 82 84 79 76 70 70 73 76 89 115 129 129 127 131 149 144 147 147 120
197 221 254 333 342 209 241 303 140 135 131 119 113 112 109 105 97 88 81 72 71 75 68 55 58 78 79 71 68 74 77 75 71 70 74 82 91 88 95 112 115 114 117 102
208 233 278 299 280 291 283 143 128 123 124 127 121 115 110 103 97 88 81 75 71 76 69 56 52 66 74 59 62 72 71 67 65 65 63 64 76 81 79 83 98 105 120 121
255 270 294 322 346 8 74 116 120 123 126 124 119 117 113 108 100 91 82 75 74 76 71 57 50 56 60 58 64 70 68 61 57 60 58 56 58 61 69 65 76 86 102 97
245 268 346 9 27 72 96 104 108 107 109 115 117 115 113 108 103 95 84 74 74 77 72 59 52 53 47 51 67 71 66 60 56 55 59 58 55 50 55 49 57 81 80 87
233 212 161 51 39 96 106 107 111 111 105 104 112 113 109 105 100 94 86 80 77 73 71 62 59 53 43 46 66 73 66 57 56 57 57 61 64 58 53 57 53 58 65 79
194 118 105 97 82 91 102 103 103 105 108 108 103 108 108 104 97 93 87 81 80 77 72 67 62 53 38 46 66 72 72 64 57 56 57 60 63 70 61 43 49 51 52 60
108 99 88 84 94 97 103 103 100 98 100 103 105 105 106 102 97 92 89 86 85 80 72 68 64 50 32 53 69 70 68 65 64 59 59 61 62 64 70 69 50 36 33 41
71 84 104 103 98 96 101 105 103 101 102 100 103 105 106 105 101 95 90 90 85 77 69 67 64 44 30 58 70 69 68 63 62 60 57 60 64 66 68 70 67 51 33 27
91 93 98 100 101 102 105 107 108 109 108 106 105 103 103 103 99 92 85 87 90 84 72 68 60 38 46 64 69 63 61 65 66 63 58 57 58 62 62 63 59 46 31 18
105 109 112 112 109 107 105 109 113 113 111 110 112 110 105 100 92 84 76 74 84 82 70 69 54 42 57 68 73 68 60 56 58 59 56 59 60 57 55 53 46 33 13 3
98 106 115 119 122 116 109 106 107 109 111 113 113 111 109 109 108 103 92 86 81 65 47 43 52 57 56 61 69 70 68 62 56 58 54 53 53 52 50 46 36 26 10 10
98 99 99 100 106 109 107 106 105 106 108 112 112 109 109 111 114 111 102 94 87 71 22 20 47 58 53 52 71 74 74 70 63 55 54 55 55 49 47 44 37 30 23 20
95 96 96 96 96 101 103 104 105 102 105 111 109 105 101 102 107 105 98 85 72 110 28 49 60 59 54 58 75 76 76 78 74 63 56 55 55 50 45 41 37 33 31 26
95 97 97 97 93 91 98 105 108 106 103 108 113 116 114 106 99 101 100 85 19 37 68 72 71 67 63 72 77 78 76 74 72 68 64 58 55 50 42 35 30 27 24 20
89 92 94 96 94 86 80 88 100 103 99 96 99 105 108 105 100 89 79 98 91 82 83 75 73 76 79 78 74 76 76 74 67 62 60 56 51 44 37 31 28 26 22 17
88 90 90 92 95 90 78 76 83 93 99 104 108 113 115 115 114 114 102 51 93 102 95 84 87 86 83 76 74 73 72 69 65 61 57 55 50 44 37 33 29 27 24 20
86 85 85 87 88 84 77 69 75 81 86 87 91 105 112 105 77 63 102 106 103 101 88 87 89 85 81 77 78 77 73 68 64 61 60 58 55 51 47 41 34 28 25 22
84 82 83 85 85 87 90 87 82 78 81 78 73 72 77 91 112 106 98 97 98 96 89 84 83 85 83 82 80 78 73 69 70 68 61 58 54 52 49 44 38 31 23 15
84 82 80 85 97 102 101 97 94 91 95 90 73 64 69 73 87 90 89 93 94 94 92 87 87 86 85 82 79 76 72 67 66 63 60 56 51 51 49 44 37 27 17 8
75 73 73 67 59 69 84 95 104 105 112 121 108 86 87 89 90 92 93 93 93 92 89 88 91 95 93 88 82 77 72 68 67 65 62 58 54 51 44 38 30 20 11 5
Height
1465 1461 1460 1459 1459 1460 1464 1466 1471 1465 1462 1454 1450 1450 1451 1452 1454 1456 1458 1461 1463 1466 1470 1473 1477 1481 1485 1488 1492 1495 1498 1501 1504 1507 1511 1514 1517 1520 1522 1525 1527 1530 1531 1533
1464 1457 1457 1457 1453 1454 1455 1456 1458 1457 1456 1448 1448 1449 1450 1451 1453 1456 1458 1460 1462 1465 1468 1471 1475 1478 1482 1485 1489 1492 1495 1499 1502 1505 1508 1511 1513 1516 1518 1520 1523 1524 1526 1527
1470 1459 1457 1461 1450 1448 1448 1446 1448 1453 1448 1446 1448 1448 1450 1452 1454 1455 1457 1460 1462 1464 1467 1469 1472 1476 1479 1482 1486 1489 1492 1495 1499 1502 1504 1507 1509 1511 1513 1516 1518 1519 1521 1522
1471 1465 1471 1451 1438 1437 1439 1439 1439 1440 1441 1444 1446 1449 1450 1452 1454 1455 1457 1459 1461 1463 1466 1468 1471 1473 1476 1479 1482 1485 1488 1492 1495 1498 1500 1503 1505 1507 1509 1511 1513 1514 1516 1517
1471 1469 1459 1446 1439 1438 1440 1440 1436 1438 1441 1444 1447 1449 1453 1454 1455 1455 1457 1459 1462 1464 1466 1468 1469 1471 1474 1476 1479 1483 1486 1488 1491 1494 1496 1499 1501 1503 1505 1507 1508 1509 1511 1512
1467 1465 1463 1445 1436 1435 1439 1442 1435 1435 1438 1442 1444 1450 1455 1456 1456 1457 1458 1461 1463 1465 1466 1468 1470 1471 1473 1475 1477 1480 1483 1486 1488 1491 1493 1495 1497 1499 1501 1502 1504 1505 1506 1507
1463 1460 1450 1439 1435 1435 1447 1440 1433 1433 1436 1440 1442 1446 1452 1455 1457 1459 1461 1463 1465 1466 1467 1469 1471 1472 1473 1475 1477 1480 1482 1484 1486 1488 1490 1492 1494 1496 1498 1499 1500 1501 1502 1503
1460 1460 1454 1438 1436 1438 1436 1432 1431 1433 1436 1440 1443 1447 1452 1456 1459 1461 1463 1466 1467 1468 1469 1471 1473 1474 1475 1476 1478 1480 1482 1484 1485 1487 1488 1490 1492 1494 1495 1496 1497 1497 1498 1499
1453 1451 1443 1438 1437 1434 1433 1433 1433 1435 1437 1441 1445 1449 1454 1458 1462 1465 1467 1468 1470 1471 1472 1474 1476 1477 1477 1480 1481 1482 1483 1485 1486 1487 1488 1490 1491 1492 1493 1494 1494 1495 1495 1495
1448 1443 1440 1437 1435 1434 1433 1433 1435 1437 1440 1443 1446 1451 1456 1461 1465 1468 1470 1472 1474 1475 1476 1478 1480 1481 1482 1483 1485 1485 1485 1486 1488 1488 1489 1490 1491 1491 1492 1492 1493 1493 1493 1493
1445 1442 1439 1437 1436 1435 1435 1436 1438 1441 1444 1447 1451 1455 1460 1464 1469 1471 1474 1477 1479 1479 1481 1483 1485 1485 1486 1488 1488 1488 1489 1489 1490 1491 1491 1491 1491 1491 1491 1492 1493 1493 1493 1493
1442 1439 1439 1439 1438 1438 1438 1440 1442 1444 1449 1453 1456 1459 1464 1469 1473 1475 1478 1481 1483 1484 1486 1488 1489 1490 1490 1491 1492 1491 1491 1492 1492 1493 1493 1493 1493 1493 1493 1494 1493 1493 1493 1493
1439 1438 1439 1440 1440 1441 1441 1444 1447 1449 1452 1457 1462 1465 1469 1473 1477 1480 1483 1485 1487 1489 1491 1493 1493 1493 1494 1495 1495 1494 1494 1494 1495 1495 1495 1495 1495 1494 1494 1495 1495 1494 1494 1493
1439 1439 1440 1442 1443 1445 1447 1449 1452 1455 1459 1463 1467 1471 1475 1478 1482 1485 1487 1490 1492 1494 1495 1496 1496 1497 1497 1497 1497 1497 1497 1497 1497 1497 1497 1496 1496 1496 1495 1495 1495 1494 1494 1493
1441 1441 1443 1445 1448 1450 1452 1455 1458 1462 1466 1470 1473 1477 1480 1483 1486 1489 1492 1494 1496 1497 1498 1499 1499 1499 1500 1500 1500 1499 1499 1499 1499 1498 1498 1497 1497 1496 1496 1495 1495 1494 1493 1493
1445 1446 1448 1450 1453 1456 1459 1461 1464 1468 1472 1475 1478 1482 1485 1488 1490 1493 1495 1497 1499 1500 1501 1501 1501 1502 1502 1502 1501 1501 1501 1500 1500 1499 1499 1498 1497 1497 1496 1495 1494 1493 1492 1491
1448 1450 1453 1455 1458 1461 1464 1467 1470 1473 1476 1480 1483 1486 1489 1492 1494 1496 1498 1500 1501 1502 1502 1503 1503 1503 1503 1503 1502 1502 1501 1501 1500 1500 1499 1498 1497 1496 1495 1494 1493 1492 1491 1490
1452 1454 1456 1459 1462 1465 1469 1472 1475 1478 1481 1484 1487 1490 1492 1495 1497 1499 1500 1502 1502 1503 1504 1504 1504 1504 1504 1503 1503 1502 1501 1501 1500 1499 1499 1497 1496 1495 1494 1493 1492 1491 1490 1489
1457 1459 1462 1465 1468 1470 1474 1477 1480 1483 1486 1488 1491 1493 1495 1498 1499 1501 1502 1503 1504 1504 1505 1505 1505 1505 1504 1503 1502 1502 1501 1500 1499 1499 1498 1497 1496 1495 1494 1493 1491 1490 1489 1488
1463 1465 1468 1471 1474 1476 1479 1482 1484 1487 1490 1492 1494 1496 1498 1500 1501 1502 1503 1504 1505 1505 1505 1505 1505 1504 1504 1503 1502 1502 1501 1500 1499 1498 1497 1496 1495 1494 1493 1492 1490 1489 1488 1486
1468 1470 1473 1475 1478 1481 1483 1486 1488 1490 1493 1495 1496 1498 1499 1501 1502 1503 1503 1504 1505 1505 1505 1505 1505 1504 1503 1503 1502 1501 1500 1499 1498 1498 1497 1496 1495 1494 1492 1491 1490 1489 1487 1485
1472 1475 1477 1479 1481 1484 1487 1489 1491 1493 1495 1496 1498 1499 1500 1501 1503 1503 1504 1505 1505 1505 1505 1505 1504 1504 1503 1502 1501 1500 1499 1499 1498 1497 1496 1495 1494 1493 1492 1491 1489 1488 1486 1485
1477 1479 1481 1483 1485 1487 1490 1492 1494 1495 1497 1498 1499 1500 1502 1503 1503 1504 1504 1505 1505 1505 1505 1504 1504 1503 1502 1501 1500 1500 1499 1498 1497 1496 1496 1494 1493 1492 1491 1490 1489 1487 1485 1483
1481 1483 1485 1487 1489 1491 1492 1494 1496 1497 1499 1500 1501 1502 1503 1503 1504 1504 1504 1504 1505 1505 1504 1504 1503 1502 1502 1501 1500 1499 1498 1498 1497 1496 1495 1494 1493 1492 1491 1489 1488 1486 1484 1482
1485 1487 1489 1490 1492 1494 1495 1497 1498 1499 1500 1500 1501 1502 1503 1503 1504 1504 1504 1504 1504 1504 1503 1503 1502 1502 1501 1500 1500 1499 1498 1497 1496 1495 1494 1494 1493 1491 1490 1489 1487 1485 1483 1481
1488 1490 1492 1493 1494 1496 1497 1498 1499 1499 1500 1501 1501 1502 1502 1502 1503 1503 1503 1503 1503 1503 1503 1502 1502 1501 1501 1500 1500 1499 1498 1497 1496 1495 1495 1494 1493 1491 1490 1488 1487 1485 1483 1481
1491 1492 1494 1495 1496 1497 1498 1499 1499 1500 1500 1501 1501 1501 1502 1502 1502 1502 1503 1503 1503 1502 1502 1502 1502 1501 1501 1501 1500 1500 1499 1498 1497 1496 1495 1494 1493 1492 1490 1488 1487 1485 1482 1480